FENGYUN 1C DEB, 33630

Orbit data source: Space-Track

FENGYUN 1C DEB, 33630 is space debris in SSO originally from a launch on Mon, 10 May 1999 UTC launched from the Taiyaun Space Center, China (TSC). Fengyun 1C debris stems from the Chinese weather satellite Fengyun-1C, which was intentionally destroyed by a Chinese anti-satellite missile in 2007. This event dramatically increased the amount of space debris, with thousands of trackable fragments posing hazards to satellites and human spaceflight. The Fengyun 1C debris cloud has become a focal point in discussions about space sustainability and the need for international regulations to prevent the creation of new debris.

Loading next visibility...
Identifier
33630, 1999-025DDP
Orbit
SSO
Country
Flag of CNCN / PRC
Related business
Manufacturer
Unknown
Mission
Spacecraft
Bus & Motor
Unknown
Mass
Unknown
Launch date (UTC)
1999-05-10 (27 years ago)
Launch vehicle
Unknown
Launch site
Taiyaun Space Center, China (TSC)
Object type
Payload
Rocket body
Debris
Shape & HBR
Unknown shape, 0.1 m
Radar Cross Section
Small (<0.1 m²)

Expand to show TLE details & history
Last TLE update: 20 hours ago

TLE from 20 hours ago
0 FENGYUN 1C DEB
1 33630U 99025DDP 26237.53816837  .00000376  00000-0  18632-3 0  9990
2 33630  98.6265 341.3640 0134740  51.7881 309.5337 14.18117863680366
Epoch: 2026-08-25T12:54Z
TLE epoch observation values (Epoch: 2026-08-25T12:54:57.747Z)
Latitude
-0.00001°
Longitude
173.81931°
Altitude
773.58 km
Speed
7.499 km/s
True Right ascension
22h 45m 27s
True Declination
0° 00' 00"
Sunlit
Object was in full shadow at epoch
Visualization orbit readout
Latitude
Unknown
Longitude
Unknown
Altitude
Unknown
Speed
Unknown
Apparent Right ascension
Unknown
Apparent Declination
Unknown
Sunlit
N/A
Visualization observer readout
Local Sidereal Time
00:05:37
Azimuth
Unknown
Elevation
Unknown
Doppler factor
Unknown
Orbital elements
Apogee altitude
925.989 km
Perigee altitude
731.774 km
Semi-major axis
7,207.018 km
Eccentricity
0.01347
Inclination
98.6265°
RAAN
341.364°
Arg. of periapsis
51.7881°
True anomaly
308.33007°
Mean anomaly
309.5337°
Eccentric anomaly
308.93317°
Mean motion
3.5474 °/min
Orbital period
101.48 mins
BSTAR
0.00018632
Loading maneuver chart data...
Computing Atmospheric mass density...
Loading historical data...
Loading historical data...
Loading historical data...
Loading historical data...
Loading historical data...
Loading historical data...
Loading historical data...

Documentation

Showing up to 5 results
|